Starlink 30956

operational
NORAD ID: 58481 Int'l Des: 2023-186 Owner: SPXS Country: US Constellation: starlink
LEOCIRCULAR

About Starlink 30956

Description loading...

Live Position

Loading 3D Globe...

Upcoming Passes

Altitude History

Altitude vs Time

uPlot chart will show altitude changes over time

Two-Line Element Set

1 58481U 23186J 25305.91440080 .00002493 00000-0 19953-3 0 9995
2 58481 43.0000 17.0786 0001234 276.0981 83.9721 15.02534703106914
Epoch: Nov 1, 2025 • Age: 47 hours

Current Status

Altitude 563.7 km
Velocity 7.58 km/s
Sub-Earth Point -21.39°S, 149.6°W
Launch Date Dec 3, 2023
Age 1.9 years
Type internet

Technical Details

Classification Payload
Mass 730.00 kg
Dry Mass 700.00 kg
Total Mass 730.00 kg
Length 0.30 m
Diameter 4.10 m
Span 29.00 m
Shape Box + pan
Manufacturer SPXS
Bus Type Starlink V2M
Phase Status In Orbit
Owner/State SPXS/US

Large Constellations

Loading constellations...